Flag for Argentina Weather past 2 weeks in Zárate, Buenos Aires, Argentina

Now
52 °F

Sunny.


Feels Like: 48 °F
Forecast: 35 / 56 °F
Wind: 12 mph from North

Location: Buenos Aires Airport

Current Time: Jul 5, 2015 at 4:51:24 PM

Latest Report: Jul 5, 2015 at 4:00 PM


Visibility: 10 mi

Pressure: 30.01 "Hg

Humidity: 62%

Dew point: 39 °F

Location of ZárateLocation

Historic Weather in Zárate — Graph

°F

Zárate temperature yesterday

Maximum temperature yesterday: 50 °F (at 2:00 PM)
Minimum temperature yesterday: 41 °F (at 8:00 AM)
Average temperature yesterday: 47 °F

Past Weeks' High & Low Weather Summary

 TemperatureHumidityPressure
High66 °F (Jun 29, 1:00 PM)100% (Jun 27, 8:00 PM)30.51 "Hg (Jun 27, 8:00 PM)
Low41 °F (Jun 23, 4:00 AM)40% (Jun 22, 9:00 PM)29.77 "Hg (Jun 29, 4:00 PM)
Average54 °F76%30.14 "Hg
* Reported Jun 20 3:00 PM — Jul 5 3:00 PM, Zárate, Weather by CustomWeather, © 2015

Note: Actual official high and low records may vary slightly from our data, if they occured in-between our weather recording intervals... More about our weather records

Advertising

Zárate weather history for previous 24 hours

 ConditionsComfort  
Time TempWeatherWind HumidityBarometerVisibility
3:00 PM
Sun, Jul 5
52 °FSunny.12 mph62%30.04 "Hg10 mi
2:00 PM50 °FSunny.14 mph62%30.07 "Hg10 mi
1:00 PM50 °FScattered clouds.18 mph67%30.09 "HgN/A
12:00 PM50 °FScattered clouds.18 mph67%30.12 "HgN/A
11:00 AM48 °FScattered clouds.18 mph76%30.15 "HgN/A
10:00 AM46 °FScattered clouds.20 mph76%30.15 "HgN/A
9:00 AM46 °FScattered clouds.21 mph82%30.15 "HgN/A
8:00 AM46 °FPassing clouds.20 mph76%30.15 "HgN/A
7:00 AM46 °FSunny.18 mph76%30.15 "Hg10 mi
6:00 AM46 °FClear.16 mph76%30.15 "Hg10 mi
5:00 AM48 °FClear.18 mph71%30.15 "Hg10 mi
4:00 AM48 °FClear.17 mph71%30.18 "Hg10 mi
3:00 AM50 °FClear.16 mph62%30.18 "Hg10 mi
2:00 AM50 °FClear.12 mph62%30.21 "Hg10 mi
1:00 AM50 °FClear.13 mph62%30.21 "Hg10 mi
12:00 AM50 °FClear.14 mph62%30.24 "Hg10 mi
11:00 PM
Sat, Jul 4
50 °FClear.16 mph62%30.21 "Hg10 mi
10:00 PM50 °FClear.13 mph62%30.21 "Hg10 mi
9:00 PM50 °FClear.3 mph62%30.21 "Hg10 mi
8:00 PM50 °FClear.6 mph67%30.24 "Hg10 mi
7:00 PM48 °FClear.6 mph71%30.24 "Hg10 mi
6:00 PM48 °FClear.3 mph66%30.24 "Hg10 mi
5:00 PM50 °FClear.5 mph67%30.24 "Hg10 mi
4:00 PM50 °FSunny.5 mph67%30.24 "Hg10 mi
Weather by CustomWeather, © 2015

See weather overviewHow to use our weather pages